Showing default

IRIDIUM 169, 43926

Orbit data source: Space-Track

IRIDIUM 169, 43926 is a payload satellite owned by Iridium (US) in LEO that was launched on Fri, 11 Jan 2019 UTC via an FALCON 9 launch vehicle from the Air Force Western Test Range (AFWTR). Payload-class satellites include a variety of spacecraft equipped with specific instruments for various scientific and technological missions. These include communications satellites like Starlink; space stations such as the ISS; scientific satellites like the Hubble; Earth observation satellites from companies like Planet Labs, Umbra, and HawkEye 360; GPS; miniature CubeSats for education and research; and military/defense satellites.

Loading next visibility...
Identifier
43926, 2019-002E
Orbit
LEO
Country
Flag of USUS
Related business
Manufacturer
NGIS SSG Gilbert
Mission
Operational Commercial Communications
Bus & Motor
ELITEBUS, Unknown motor
Mass
860 kg wet, 700 kg dry
Launch date (UTC)
2019-01-11 (7 years ago)
Launch vehicle
FALCON 9
Launch site
Air Force Western Test Range (AFWTR)
Object type
Payload
Rocket body
Debris
Shape & HBR
Trap Box + 2 Pan, 4.8 m
Radar Cross Section
10.154 m², Large (>1 m²)

Expand to show TLE details & history
Last TLE update: 23 hours ago

TLE from 23 hours ago
0 IRIDIUM 169
1 43926U 19002E   25310.88244546  .00000146  00000-0  41079-4 0  9994
2 43926  86.4195 118.1519 0001669  53.6647 306.4705 14.38608192358269
Epoch: 2025-11-06T21:10Z
TLE epoch observation values (Epoch: 2025-11-06T21:10:43.287Z)
Latitude
-0.00006°
Longitude
114.13715°
Altitude
765.45 km
Speed
7.472 km/s
True Right ascension
07h 52m 36s
True Declination
0° 00' 00"
Sunlit
Object was in daylight at epoch
Visualization orbit readout
Latitude
Unknown
Longitude
Unknown
Altitude
Unknown
Speed
Unknown
Apparent Right ascension
Unknown
Apparent Declination
Unknown
Sunlit
N/A
Visualization observer readout
Local Sidereal Time
15:57:17
Azimuth
Unknown
Elevation
Unknown
Doppler factor
Unknown
Orbital elements
Apogee altitude
761.25 km
Perigee altitude
758.867 km
Semi-major axis
7,138.196 km
Eccentricity
0.00017
Inclination
86.4195°
RAAN
118.1519°
Arg. of periapsis
53.6647°
True anomaly
306.45512°
Mean anomaly
306.4705°
Eccentric anomaly
306.46281°
Mean motion
3.59882 °/min
Orbital period
100.03 mins
BSTAR
0.000041079
Loading maneuver chart data...
Computing Atmospheric mass density...
Loading historical data...
Loading historical data...
Loading historical data...
Loading historical data...
Loading historical data...
Loading historical data...
Loading historical data...

Documentation

Showing up to 5 results
|